sat.trackr.live / text

‹ back to catalog

STARLINK-11575 [DTC]

NORAD 63308 · 2025-057B

PAYLOAD ACTIVE UNKNOWN

§ Identity

Operator
Country
US
Launch date
2025-03-18
Launch site
AFETR
Launch vehicle
Mass (kg)
RCS (m²)

Purposes: comms

External: N2YO · Heavens-Above · Gunter

§ Orbital elements

Epoch: 2026-09-20T19:18:25.324128Z

Period
91.67 min
Inclination
43.0033°
Eccentricity
0.0003006
Mean motion
15.70847889 rev/d
Perigee alt
354.4 km
Apogee alt
358.5 km
Semi-major
6,734.6 km
B*
9.7661e-4
RAAN
168.4867°
Arg perigee
309.6085°
Mean anomaly
50.4517°
Rev number
8,786

§ Raw data

STARLINK-11575 [DTC]1 63308U 25057B   26263.80445977  .00126851  00000+0  97661-3 0  99962 63308  43.0033 168.4867 0003006 309.6085  50.4517 15.70847889 87863

JSON: /api/v1/satellites/63308 · /tle

For live sub-satellite position, see the globe view (requires WebGL).

§ Visibility from observer

Set your observer location to see the next 7 days of passes ≥ 10°. The values pass through the URL so the page stays shareable.

No JS? Fill the form by hand. The geolocation button needs JavaScript.